Location: Redwood City
(37.4850°N, 122.2350°W)
Time: 22:15:12
(UTC-07:00)

ISS - Visible Passes

Search period start: 24 May 2015 00:00
Search period end: 03 June 2015 00:00
Orbit: 399 x 404 km, 51.6° (Epoch: 24 May)

Date Brightness Start Highest point End Pass type
(mag) Time Alt. Az. Time Alt. Az. Time Alt. Az.
24 May 0.1 02:01:46 12° NNE 02:01:46 12° NNE 02:02:11 10° NNE visible
25 May -0.1 02:42:44 11° NNW 02:43:10 11° NNW 02:44:04 10° N visible
26 May 0.1 01:51:03 12° N 01:51:03 12° N 01:51:38 10° NNE visible
26 May 0.1 05:04:16 10° N 05:04:56 10° NNE 05:05:38 10° NNE visible
28 May 0.2 01:39:54 10° NNW 01:39:57 10° NNW 01:40:14 10° N visible
28 May -0.2 04:53:08 10° NNW 04:55:13 16° NNE 04:57:21 10° ENE visible
29 May 0.2 00:47:43 11° N 00:47:43 11° N 00:48:09 10° NNE visible
29 May 0.1 04:00:36 10° N 04:01:39 11° NNE 04:02:46 10° NE visible
29 May -0.2 23:54:51 13° NNE 23:54:51 13° NNE 23:55:22 10° NNE visible
30 May -1.0 04:42:29 10° NNW 04:45:20 27° NNE 04:48:12 10° E visible
30 May -2.1 21:20:38 10° S 21:23:06 21° SE 21:25:39 10° E visible
30 May -1.7 22:56:23 10° WSW 22:59:23 34° NNW 23:02:24 10° NE visible
31 May -0.2 03:49:34 10° NNW 03:51:50 17° NNE 03:54:08 10° ENE visible
31 May -3.1 22:02:48 10° WSW 22:06:01 68° NW 22:09:15 10° NE visible
31 May 0.1 23:41:22 10° NW 23:42:57 13° NNW 23:44:30 10° N visible
01 Jun 0.2 02:56:53 10° N 02:58:15 12° NNE 02:59:39 10° NE visible
01 Jun -2.7 04:32:00 10° NW 04:35:14 60° NE 04:38:27 10° ESE visible
01 Jun -3.3 21:09:34 10° SW 21:12:43 54° SE 21:15:54 10° ENE visible
01 Jun -0.4 22:46:58 10° WNW 22:49:21 19° NNW 22:51:44 10° NNE visible
02 Jun -1.4 03:38:53 10° NNW 03:41:49 31° NNE 03:44:47 10° E visible
02 Jun -2.2 05:15:27 10° WNW 05:18:09 24° SW 05:20:49 10° S visible
02 Jun -1.2 21:52:55 10° W 21:55:50 30° NNW 21:58:45 10° NNE visible
